ISX (CP11)

Last updated on Sun Mar 10 2019 03:10:55 GMT+0000 (Coordinated Universal Time)

1 43856U 18104H 19068.58234217 .00000041 00000-0 00000+0 0 9990 2 43856 85.0341 123.4169 0014728 9.7052 350.4501 15.20043057 12659
UTC large
Height (km)
Speed (km/s)
/
Latitude / Longitude
Inclination (degrees)
Orbital Period (minutes)
Azimuth
Elevation
Range (km)
Doppler Factor

Next 0 passes for location: London (51.5072 / 0.1276)

Sorry there are no passes over London.